Time,TemperatureF,DewpointF,PressureIn,WindDirection,WindDirectionDegrees,WindSpeedMPH,WindSpeedGustMPH,Humidity,HourlyPrecipIn,Conditions,Clouds,dailyrainin,SoftwareType,DateUTC
2013-02-13 00:00:00,28.0,23.0,29.90,WSW,247,6.0,6.0,83,0.00,,,0.00,Rainwise IP-100,2013-02-13 05:00:00,
2013-02-13 00:05:00,28.0,23.0,29.90,West,270,4.0,6.0,82,0.00,,,0.00,Rainwise IP-100,2013-02-13 05:05:00,
2013-02-13 00:10:00,28.0,23.0,29.90,West,270,7.0,13.0,80,0.00,,,0.00,Rainwise IP-100,2013-02-13 05:10:00,
2013-02-13 00:15:00,29.0,24.0,29.90,WNW,292,7.0,12.0,79,0.00,,,0.00,Rainwise IP-100,2013-02-13 05:15:00,
2013-02-13 00:20:00,29.0,23.0,29.90,West,270,8.0,11.0,77,0.00,,,0.00,Rainwise IP-100,2013-02-13 05:20:00,
2013-02-13 00:25:00,29.0,23.0,29.90,WNW,292,7.0,12.0,78,0.00,,,0.00,Rainwise IP-100,2013-02-13 05:25:00,
2013-02-13 00:30:00,29.0,24.0,29.90,West,270,6.0,9.0,79,0.00,,,0.00,Rainwise IP-100,2013-02-13 05:30:00,
2013-02-13 00:35:00,29.0,24.0,29.90,West,270,5.0,9.0,79,0.00,,,0.00,Rainwise IP-100,2013-02-13 05:35:00,
2013-02-13 00:40:00,28.0,23.0,29.90,NW,315,3.0,8.0,79,0.00,,,0.00,Rainwise IP-100,2013-02-13 05:40:00,
2013-02-13 00:45:00,28.0,23.0,29.90,North,360,4.0,6.0,78,0.00,,,0.00,Rainwise IP-100,2013-02-13 05:45:00,
2013-02-13 00:50:00,28.0,23.0,29.90,WNW,292,6.0,7.0,78,0.00,,,0.00,Rainwise IP-100,2013-02-13 05:50:00,
2013-02-13 00:55:00,28.0,23.0,29.90,WSW,247,6.0,7.0,78,0.00,,,0.00,Rainwise IP-100,2013-02-13 05:55:00,
2013-02-13 00:57:00,28.0,23.0,29.90,WNW,292,6.0,8.0,78,0.00,,,0.00,Rainwise IP-100,2013-02-13 05:57:00,
2013-02-13 01:02:00,28.0,23.0,29.90,West,270,6.0,9.0,78,0.00,,,0.00,Rainwise IP-100,2013-02-13 06:02:00,
2013-02-13 01:07:00,28.0,23.0,29.90,WSW,247,4.0,8.0,78,0.00,,,0.00,Rainwise IP-100,2013-02-13 06:07:00,
2013-02-13 01:12:00,28.0,23.0,29.90,NW,315,2.0,6.0,79,0.00,,,0.00,Rainwise IP-100,2013-02-13 06:12:00,
2013-02-13 01:17:00,28.0,23.0,29.90,WNW,292,3.0,9.0,79,0.00,,,0.00,Rainwise IP-100,2013-02-13 06:17:00,
2013-02-13 01:22:00,28.0,23.0,29.90,NNW,337,3.0,6.0,80,0.00,,,0.00,Rainwise IP-100,2013-02-13 06:22:00,
2013-02-13 01:25:00,28.0,23.0,29.90,North,360,1.0,6.0,81,0.00,,,0.00,Rainwise IP-100,2013-02-13 06:25:00,
2013-02-13 01:30:00,28.0,23.0,29.90,North,360,2.0,3.0,82,0.00,,,0.00,Rainwise IP-100,2013-02-13 06:30:00,
2013-02-13 01:35:00,27.0,24.0,29.90,North,360,2.0,3.0,84,0.00,,,0.00,Rainwise IP-100,2013-02-13 06:35:00,
2013-02-13 01:40:00,27.0,24.0,29.91,North,360,2.0,3.0,84,0.00,,,0.00,Rainwise IP-100,2013-02-13 06:40:00,
2013-02-13 01:45:00,27.0,23.0,29.91,SSW,202,0.0,7.0,82,0.00,,,0.00,Rainwise IP-100,2013-02-13 06:45:00,
2013-02-13 01:50:00,27.0,23.0,29.90,East,90,3.0,4.0,83,0.00,,,0.00,Rainwise IP-100,2013-02-13 06:50:00,
2013-02-13 01:55:00,27.0,23.0,29.90,North,360,0.0,6.0,83,0.00,,,0.00,Rainwise IP-100,2013-02-13 06:55:00,
2013-02-13 02:00:00,27.0,24.0,29.90,NE,45,4.0,4.0,85,0.00,,,0.00,Rainwise IP-100,2013-02-13 07:00:00,
2013-02-13 02:05:00,27.0,24.0,29.90,NNE,22,1.0,6.0,86,0.00,,,0.00,Rainwise IP-100,2013-02-13 07:05:00,
2013-02-13 02:10:00,27.0,24.0,29.90,ENE,67,3.0,5.0,85,0.00,,,0.00,Rainwise IP-100,2013-02-13 07:10:00,
2013-02-13 02:15:00,27.0,24.0,29.90,ENE,67,2.0,3.0,85,0.00,,,0.00,Rainwise IP-100,2013-02-13 07:15:00,
2013-02-13 02:21:00,27.0,24.0,29.90,ENE,67,2.0,3.0,85,0.00,,,0.00,Rainwise IP-100,2013-02-13 07:21:00,
2013-02-13 02:22:00,27.0,24.0,29.90,ENE,67,2.0,3.0,85,0.00,,,0.00,Rainwise IP-100,2013-02-13 07:22:00,
2013-02-13 02:28:00,27.0,24.0,29.90,ENE,67,3.0,5.0,86,0.00,,,0.00,Rainwise IP-100,2013-02-13 07:28:00,
2013-02-13 02:33:00,26.0,23.0,29.90,ENE,67,0.0,5.0,87,0.00,,,0.00,Rainwise IP-100,2013-02-13 07:33:00,
2013-02-13 02:38:00,26.0,23.0,29.90,ENE,67,0.0,0.0,87,0.00,,,0.00,Rainwise IP-100,2013-02-13 07:38:00,
2013-02-13 02:43:00,26.0,23.0,29.90,ENE,67,0.0,0.0,88,0.00,,,0.00,Rainwise IP-100,2013-02-13 07:43:00,
2013-02-13 02:48:00,26.0,23.0,29.90,SW,225,1.0,3.0,88,0.00,,,0.00,Rainwise IP-100,2013-02-13 07:48:00,
2013-02-13 02:53:00,26.0,23.0,29.90,SW,225,0.0,2.0,87,0.00,,,0.00,Rainwise IP-100,2013-02-13 07:53:00,
2013-02-13 02:58:00,26.0,23.0,29.91,SW,225,0.0,0.0,88,0.00,,,0.00,Rainwise IP-100,2013-02-13 07:58:00,
2013-02-13 03:03:00,27.0,24.0,29.91,East,90,2.0,6.0,85,0.00,,,0.00,Rainwise IP-100,2013-02-13 08:03:00,
2013-02-13 03:08:00,27.0,24.0,29.90,East,90,1.0,3.0,85,0.00,,,0.00,Rainwise IP-100,2013-02-13 08:08:00,
2013-02-13 03:13:00,26.0,23.0,29.90,SSE,157,3.0,4.0,86,0.00,,,0.00,Rainwise IP-100,2013-02-13 08:13:00,
2013-02-13 03:18:00,26.0,23.0,29.90,SSE,157,0.0,3.0,88,0.00,,,0.00,Rainwise IP-100,2013-02-13 08:18:00,
2013-02-13 03:23:00,27.0,23.0,29.90,NW,315,7.0,10.0,81,0.00,,,0.00,Rainwise IP-100,2013-02-13 08:23:00,
2013-02-13 03:28:00,27.0,23.0,29.90,NW,315,5.0,10.0,79,0.00,,,0.00,Rainwise IP-100,2013-02-13 08:28:00,
2013-02-13 03:33:00,27.0,23.0,29.90,NNW,337,0.0,7.0,79,0.00,,,0.00,Rainwise IP-100,2013-02-13 08:33:00,
2013-02-13 03:38:00,27.0,23.0,29.90,SW,225,2.0,6.0,80,0.00,,,0.00,Rainwise IP-100,2013-02-13 08:38:00,
2013-02-13 03:43:00,27.0,24.0,29.90,SSW,202,3.0,6.0,84,0.00,,,0.00,Rainwise IP-100,2013-02-13 08:43:00,
2013-02-13 03:48:00,26.0,23.0,29.91,South,180,5.0,8.0,86,0.00,,,0.00,Rainwise IP-100,2013-02-13 08:48:00,
2013-02-13 03:53:00,26.0,23.0,29.91,WSW,247,1.0,6.0,87,0.00,,,0.00,Rainwise IP-100,2013-02-13 08:53:00,
2013-02-13 03:58:00,26.0,23.0,29.91,ESE,112,5.0,5.0,85,0.00,,,0.00,Rainwise IP-100,2013-02-13 08:58:00,
2013-02-13 04:03:00,27.0,23.0,29.91,WNW,292,2.0,8.0,79,0.00,,,0.00,Rainwise IP-100,2013-02-13 09:03:00,
2013-02-13 04:08:00,27.0,23.0,29.90,SSW,202,5.0,6.0,79,0.00,,,0.00,Rainwise IP-100,2013-02-13 09:08:00,
2013-02-13 04:13:00,27.0,23.0,29.90,West,270,6.0,6.0,79,0.00,,,0.00,Rainwise IP-100,2013-02-13 09:13:00,
2013-02-13 04:18:00,27.0,23.0,29.91,South,180,6.0,7.0,80,0.00,,,0.00,Rainwise IP-100,2013-02-13 09:18:00,
2013-02-13 04:23:00,27.0,23.0,29.91,South,180,5.0,6.0,83,0.00,,,0.00,Rainwise IP-100,2013-02-13 09:23:00,
2013-02-13 04:28:00,27.0,24.0,29.91,SSW,202,5.0,6.0,84,0.00,,,0.00,Rainwise IP-100,2013-02-13 09:28:00,
2013-02-13 04:33:00,27.0,24.0,29.91,SSW,202,3.0,6.0,84,0.00,,,0.00,Rainwise IP-100,2013-02-13 09:33:00,
2013-02-13 04:38:00,27.0,23.0,29.91,South,180,6.0,7.0,82,0.00,,,0.00,Rainwise IP-100,2013-02-13 09:38:00,
2013-02-13 04:43:00,27.0,23.0,29.91,SW,225,6.0,7.0,79,0.00,,,0.00,Rainwise IP-100,2013-02-13 09:43:00,
2013-02-13 04:48:00,27.0,23.0,29.91,SSW,202,7.0,7.0,80,0.00,,,0.00,Rainwise IP-100,2013-02-13 09:48:00,
2013-02-13 04:53:00,27.0,23.0,29.91,WSW,247,3.0,7.0,81,0.00,,,0.00,Rainwise IP-100,2013-02-13 09:53:00,
2013-02-13 04:58:00,27.0,23.0,29.91,WSW,247,3.0,5.0,81,0.00,,,0.00,Rainwise IP-100,2013-02-13 09:58:00,
2013-02-13 05:03:00,27.0,23.0,29.91,SSW,202,5.0,6.0,82,0.00,,,0.00,Rainwise IP-100,2013-02-13 10:03:00,
2013-02-13 05:08:00,27.0,23.0,29.91,South,180,6.0,7.0,82,0.00,,,0.00,Rainwise IP-100,2013-02-13 10:08:00,
2013-02-13 05:13:00,27.0,23.0,29.91,SSW,202,5.0,7.0,82,0.00,,,0.00,Rainwise IP-100,2013-02-13 10:13:00,
2013-02-13 05:18:00,27.0,23.0,29.90,SSW,202,6.0,7.0,82,0.00,,,0.00,Rainwise IP-100,2013-02-13 10:18:00,
2013-02-13 05:23:00,27.0,23.0,29.90,SSE,157,9.0,10.0,81,0.00,,,0.00,Rainwise IP-100,2013-02-13 10:23:00,
2013-02-13 05:28:00,27.0,23.0,29.90,South,180,6.0,9.0,82,0.00,,,0.00,Rainwise IP-100,2013-02-13 10:28:00,
2013-02-13 05:33:00,27.0,23.0,29.90,SW,225,6.0,12.0,81,0.00,,,0.00,Rainwise IP-100,2013-02-13 10:33:00,
2013-02-13 05:38:00,27.0,23.0,29.90,SW,225,4.0,7.0,81,0.00,,,0.00,Rainwise IP-100,2013-02-13 10:38:00,
2013-02-13 05:43:00,27.0,23.0,29.90,West,270,5.0,7.0,81,0.00,,,0.00,Rainwise IP-100,2013-02-13 10:43:00,
2013-02-13 05:48:00,27.0,23.0,29.91,SSE,157,7.0,7.0,81,0.00,,,0.00,Rainwise IP-100,2013-02-13 10:48:00,
2013-02-13 05:53:00,26.0,21.0,29.91,South,180,6.0,9.0,82,0.00,,,0.00,Rainwise IP-100,2013-02-13 10:53:00,
2013-02-13 05:58:00,27.0,23.0,29.90,SSW,202,6.0,7.0,82,0.00,,,0.00,Rainwise IP-100,2013-02-13 10:58:00,
2013-02-13 06:03:00,26.0,23.0,29.90,SW,225,4.0,7.0,83,0.00,,,0.00,Rainwise IP-100,2013-02-13 11:03:00,
2013-02-13 06:08:00,27.0,23.0,29.90,South,180,7.0,7.0,82,0.00,,,0.00,Rainwise IP-100,2013-02-13 11:08:00,
2013-02-13 06:13:00,26.0,21.0,29.90,SSW,202,6.0,8.0,82,0.00,,,0.00,Rainwise IP-100,2013-02-13 11:13:00,
2013-02-13 06:18:00,27.0,23.0,29.90,South,180,4.0,7.0,82,0.00,,,0.00,Rainwise IP-100,2013-02-13 11:18:00,
2013-02-13 06:23:00,26.0,23.0,29.90,SW,225,6.0,6.0,83,0.00,,,0.00,Rainwise IP-100,2013-02-13 11:23:00,
2013-02-13 06:28:00,27.0,23.0,29.90,South,180,7.0,8.0,82,0.00,,,0.00,Rainwise IP-100,2013-02-13 11:28:00,
2013-02-13 06:33:00,27.0,23.0,29.90,SSW,202,6.0,10.0,81,0.00,,,0.00,Rainwise IP-100,2013-02-13 11:33:00,
2013-02-13 06:38:00,27.0,23.0,29.91,SW,225,8.0,8.0,82,0.00,,,0.00,Rainwise IP-100,2013-02-13 11:38:00,
2013-02-13 06:43:00,27.0,23.0,29.91,SW,225,6.0,9.0,82,0.00,,,0.00,Rainwise IP-100,2013-02-13 11:43:00,
2013-02-13 06:48:00,27.0,23.0,29.91,SW,225,5.0,7.0,82,0.00,,,0.00,Rainwise IP-100,2013-02-13 11:48:00,
2013-02-13 06:53:00,26.0,21.0,29.91,WSW,247,3.0,6.0,82,0.00,,,0.00,Rainwise IP-100,2013-02-13 11:53:00,
2013-02-13 06:58:00,27.0,23.0,29.90,SSW,202,5.0,7.0,82,0.00,,,0.00,Rainwise IP-100,2013-02-13 11:58:00,
2013-02-13 07:03:00,26.0,21.0,29.90,SSE,157,8.0,8.0,82,0.00,,,0.00,Rainwise IP-100,2013-02-13 12:03:00,
2013-02-13 07:08:00,27.0,23.0,29.90,SSW,202,10.0,10.0,82,0.00,,,0.00,Rainwise IP-100,2013-02-13 12:08:00,
2013-02-13 07:13:00,27.0,23.0,29.90,SW,225,8.0,10.0,82,0.00,,,0.00,Rainwise IP-100,2013-02-13 12:13:00,
2013-02-13 07:18:00,27.0,23.0,29.91,SW,225,6.0,10.0,82,0.00,,,0.00,Rainwise IP-100,2013-02-13 12:18:00,
2013-02-13 07:23:00,27.0,23.0,29.91,South,180,7.0,8.0,82,0.00,,,0.00,Rainwise IP-100,2013-02-13 12:23:00,
2013-02-13 07:28:00,27.0,23.0,29.91,SSE,157,8.0,9.0,82,0.00,,,0.00,Rainwise IP-100,2013-02-13 12:28:00,
2013-02-13 07:33:00,27.0,23.0,29.91,South,180,6.0,9.0,83,0.00,,,0.00,Rainwise IP-100,2013-02-13 12:33:00,
2013-02-13 07:38:00,27.0,23.0,29.91,SW,225,3.0,7.0,83,0.00,,,0.00,Rainwise IP-100,2013-02-13 12:38:00,
2013-02-13 07:43:00,27.0,23.0,29.91,South,180,6.0,7.0,82,0.00,,,0.00,Rainwise IP-100,2013-02-13 12:43:00,
2013-02-13 07:48:00,27.0,23.0,29.91,SW,225,4.0,7.0,82,0.00,,,0.00,Rainwise IP-100,2013-02-13 12:48:00,
2013-02-13 07:53:00,27.0,23.0,29.91,SW,225,4.0,7.0,82,0.00,,,0.00,Rainwise IP-100,2013-02-13 12:53:00,
2013-02-13 07:58:00,27.0,23.0,29.91,SW,225,9.0,10.0,82,0.00,,,0.00,Rainwise IP-100,2013-02-13 12:58:00,
2013-02-13 08:03:00,27.0,23.0,29.91,SW,225,8.0,11.0,82,0.00,,,0.00,Rainwise IP-100,2013-02-13 13:03:00,
2013-02-13 08:08:00,27.0,23.0,29.91,SW,225,8.0,12.0,82,0.00,,,0.00,Rainwise IP-100,2013-02-13 13:08:00,
2013-02-13 08:13:00,27.0,23.0,29.91,SW,225,8.0,10.0,82,0.00,,,0.00,Rainwise IP-100,2013-02-13 13:13:00,
2013-02-13 08:18:00,27.0,23.0,29.91,SW,225,8.0,9.0,82,0.00,,,0.00,Rainwise IP-100,2013-02-13 13:18:00,
2013-02-13 08:23:00,27.0,23.0,29.91,West,270,6.0,9.0,81,0.00,,,0.00,Rainwise IP-100,2013-02-13 13:23:00,
2013-02-13 08:28:00,27.0,23.0,29.92,WSW,247,5.0,7.0,81,0.00,,,0.00,Rainwise IP-100,2013-02-13 13:28:00,
2013-02-13 08:33:00,27.0,23.0,29.92,WSW,247,5.0,8.0,80,0.00,,,0.00,Rainwise IP-100,2013-02-13 13:33:00,
2013-02-13 08:38:00,28.0,23.0,29.91,WSW,247,7.0,8.0,80,0.00,,,0.00,Rainwise IP-100,2013-02-13 13:38:00,
2013-02-13 08:43:00,28.0,23.0,29.91,WSW,247,5.0,7.0,80,0.00,,,0.00,Rainwise IP-100,2013-02-13 13:43:00,
2013-02-13 08:48:00,28.0,23.0,29.91,SW,225,6.0,7.0,78,0.00,,,0.00,Rainwise IP-100,2013-02-13 13:48:00,
2013-02-13 08:53:00,28.0,23.0,29.91,WSW,247,4.0,9.0,78,0.00,,,0.00,Rainwise IP-100,2013-02-13 13:53:00,
2013-02-13 08:58:00,28.0,23.0,29.91,SW,225,6.0,9.0,78,0.00,,,0.00,Rainwise IP-100,2013-02-13 13:58:00,
2013-02-13 09:03:00,28.0,23.0,29.91,SSW,202,5.0,9.0,78,0.00,,,0.00,Rainwise IP-100,2013-02-13 14:03:00,
2013-02-13 09:08:00,29.0,23.0,29.91,SW,225,9.0,9.0,78,0.00,,,0.00,Rainwise IP-100,2013-02-13 14:08:00,
2013-02-13 09:13:00,28.0,23.0,29.91,SW,225,9.0,10.0,78,0.00,,,0.00,Rainwise IP-100,2013-02-13 14:13:00,
2013-02-13 09:18:00,29.0,23.0,29.91,SW,225,5.0,10.0,78,0.00,,,0.00,Rainwise IP-100,2013-02-13 14:18:00,
2013-02-13 09:23:00,29.0,23.0,29.91,SSW,202,7.0,10.0,78,0.00,,,0.00,Rainwise IP-100,2013-02-13 14:23:00,
2013-02-13 09:28:00,29.0,23.0,29.92,SW,225,8.0,12.0,78,0.00,,,0.00,Rainwise IP-100,2013-02-13 14:28:00,
2013-02-13 09:33:00,29.0,23.0,29.92,SSW,202,11.0,12.0,78,0.00,,,0.00,Rainwise IP-100,2013-02-13 14:33:00,
2013-02-13 09:38:00,29.0,23.0,29.91,SW,225,8.0,12.0,77,0.00,,,0.00,Rainwise IP-100,2013-02-13 14:38:00,
2013-02-13 09:43:00,29.0,23.0,29.91,WSW,247,7.0,12.0,77,0.00,,,0.00,Rainwise IP-100,2013-02-13 14:43:00,
2013-02-13 09:48:00,29.0,23.0,29.91,SW,225,6.0,11.0,77,0.00,,,0.00,Rainwise IP-100,2013-02-13 14:48:00,
2013-02-13 09:53:00,29.0,23.0,29.91,SW,225,8.0,11.0,76,0.00,,,0.00,Rainwise IP-100,2013-02-13 14:53:00,
2013-02-13 09:58:00,30.0,24.0,29.90,SW,225,6.0,10.0,76,0.00,,,0.00,Rainwise IP-100,2013-02-13 14:58:00,
2013-02-13 10:03:00,29.0,23.0,29.90,SSW,202,6.0,10.0,74,0.00,,,0.00,Rainwise IP-100,2013-02-13 15:03:00,
2013-02-13 10:08:00,30.0,24.0,29.90,SW,225,6.0,10.0,75,0.00,,,0.00,Rainwise IP-100,2013-02-13 15:08:00,
2013-02-13 10:13:00,30.0,23.0,29.90,SSW,202,6.0,10.0,73,0.00,,,0.00,Rainwise IP-100,2013-02-13 15:13:00,
2013-02-13 10:18:00,30.0,23.0,29.90,SW,225,4.0,8.0,73,0.00,,,0.00,Rainwise IP-100,2013-02-13 15:18:00,
2013-02-13 10:23:00,31.0,23.0,29.90,SE,135,0.0,6.0,73,0.00,,,0.00,Rainwise IP-100,2013-02-13 15:23:00,
2013-02-13 10:28:00,31.0,23.0,29.90,SSW,202,7.0,7.0,72,0.00,,,0.00,Rainwise IP-100,2013-02-13 15:28:00,
2013-02-13 10:33:00,31.0,23.0,29.90,SSW,202,6.0,9.0,71,0.00,,,0.00,Rainwise IP-100,2013-02-13 15:33:00,
2013-02-13 10:38:00,31.0,23.0,29.90,SSW,202,2.0,7.0,70,0.00,,,0.00,Rainwise IP-100,2013-02-13 15:38:00,
2013-02-13 10:43:00,32.0,23.0,29.90,South,180,2.0,5.0,68,0.00,,,0.00,Rainwise IP-100,2013-02-13 15:43:00,
2013-02-13 10:48:00,33.0,24.0,29.89,NW,315,6.0,7.0,66,0.00,,,0.00,Rainwise IP-100,2013-02-13 15:48:00,
2013-02-13 10:53:00,33.0,23.0,29.89,West,270,1.0,10.0,63,0.00,,,0.00,Rainwise IP-100,2013-02-13 15:53:00,
2013-02-13 10:58:00,33.0,23.0,29.89,WNW,292,5.0,6.0,63,0.00,,,0.00,Rainwise IP-100,2013-02-13 15:58:00,
2013-02-13 11:03:00,33.0,21.0,29.89,WSW,247,3.0,6.0,60,0.00,,,0.00,Rainwise IP-100,2013-02-13 16:03:00,
2013-02-13 11:08:00,33.0,21.0,29.89,NE,45,2.0,11.0,56,0.00,,,0.00,Rainwise IP-100,2013-02-13 16:08:00,
2013-02-13 11:13:00,33.0,21.0,29.88,North,360,6.0,17.0,56,0.00,,,0.00,Rainwise IP-100,2013-02-13 16:13:00,
2013-02-13 11:18:00,33.0,21.0,29.88,NNW,337,2.0,12.0,56,0.00,,,0.00,Rainwise IP-100,2013-02-13 16:18:00,
2013-02-13 11:23:00,33.0,18.0,29.88,NW,315,8.0,15.0,54,0.00,,,0.00,Rainwise IP-100,2013-02-13 16:23:00,
2013-02-13 11:28:00,33.0,18.0,29.87,NW,315,8.0,16.0,52,0.00,,,0.00,Rainwise IP-100,2013-02-13 16:28:00,
2013-02-13 11:33:00,33.0,18.0,29.87,West,270,13.0,18.0,50,0.00,,,0.00,Rainwise IP-100,2013-02-13 16:33:00,
2013-02-13 11:38:00,33.0,16.0,29.87,NNW,337,11.0,20.0,49,0.00,,,0.00,Rainwise IP-100,2013-02-13 16:38:00,
2013-02-13 11:43:00,33.0,18.0,29.87,NNW,337,10.0,15.0,50,0.00,,,0.00,Rainwise IP-100,2013-02-13 16:43:00,
2013-02-13 11:48:00,34.0,18.0,29.86,WNW,292,7.0,15.0,50,0.00,,,0.00,Rainwise IP-100,2013-02-13 16:48:00,
2013-02-13 11:53:00,33.0,16.0,29.86,NW,315,9.0,16.0,49,0.00,,,0.00,Rainwise IP-100,2013-02-13 16:53:00,
2013-02-13 11:58:00,33.0,18.0,29.87,North,360,1.0,14.0,53,0.00,,,0.00,Rainwise IP-100,2013-02-13 16:58:00,
2013-02-13 12:03:00,33.0,16.0,29.87,WSW,247,6.0,7.0,48,0.00,,,0.00,Rainwise IP-100,2013-02-13 17:03:00,
2013-02-13 12:08:00,34.0,18.0,29.86,NNW,337,6.0,11.0,48,0.00,,,0.00,Rainwise IP-100,2013-02-13 17:08:00,
2013-02-13 12:13:00,34.0,18.0,29.86,WNW,292,8.0,12.0,49,0.00,,,0.00,Rainwise IP-100,2013-02-13 17:13:00,
2013-02-13 12:18:00,34.0,18.0,29.86,NNW,337,9.0,10.0,48,0.00,,,0.00,Rainwise IP-100,2013-02-13 17:18:00,
2013-02-13 12:23:00,34.0,16.0,29.86,NNW,337,14.0,17.0,47,0.00,,,0.00,Rainwise IP-100,2013-02-13 17:23:00,
2013-02-13 12:28:00,34.0,16.0,29.86,NW,315,9.0,17.0,47,0.00,,,0.00,Rainwise IP-100,2013-02-13 17:28:00,
2013-02-13 12:33:00,33.0,16.0,29.86,NW,315,16.0,16.0,47,0.00,,,0.00,Rainwise IP-100,2013-02-13 17:33:00,
2013-02-13 12:38:00,33.0,16.0,29.86,WNW,292,16.0,18.0,48,0.00,,,0.00,Rainwise IP-100,2013-02-13 17:38:00,
2013-02-13 12:43:00,33.0,16.0,29.86,NW,315,12.0,17.0,49,0.00,,,0.00,Rainwise IP-100,2013-02-13 17:43:00,
2013-02-13 12:48:00,33.0,18.0,29.86,NNW,337,10.0,15.0,51,0.00,,,0.00,Rainwise IP-100,2013-02-13 17:48:00,
2013-02-13 12:53:00,33.0,18.0,29.86,NNW,337,10.0,15.0,51,0.00,,,0.00,Rainwise IP-100,2013-02-13 17:53:00,
2013-02-13 12:58:00,33.0,18.0,29.86,NW,315,9.0,13.0,52,0.00,,,0.00,Rainwise IP-100,2013-02-13 17:58:00,
2013-02-13 13:03:00,33.0,18.0,29.86,North,360,7.0,12.0,53,0.00,,,0.00,Rainwise IP-100,2013-02-13 18:03:00,
2013-02-13 13:08:00,33.0,18.0,29.86,NW,315,6.0,12.0,54,0.00,,,0.00,Rainwise IP-100,2013-02-13 18:08:00,
2013-02-13 13:13:00,33.0,18.0,29.86,WNW,292,10.0,12.0,54,0.00,,,0.00,Rainwise IP-100,2013-02-13 18:13:00,
2013-02-13 13:18:00,33.0,18.0,29.86,WNW,292,2.0,10.0,54,0.00,,,0.00,Rainwise IP-100,2013-02-13 18:18:00,
2013-02-13 13:23:00,33.0,18.0,29.86,WNW,292,5.0,8.0,54,0.00,,,0.00,Rainwise IP-100,2013-02-13 18:23:00,
2013-02-13 13:28:00,33.0,21.0,29.86,NNW,337,10.0,10.0,56,0.00,,,0.00,Rainwise IP-100,2013-02-13 18:28:00,
2013-02-13 13:33:00,32.0,18.0,29.86,NNW,337,5.0,11.0,56,0.00,,,0.00,Rainwise IP-100,2013-02-13 18:33:00,
2013-02-13 13:38:00,33.0,21.0,29.84,North,360,9.0,9.0,58,0.00,,,0.00,Rainwise IP-100,2013-02-13 18:38:00,
2013-02-13 13:43:00,33.0,21.0,29.84,North,360,6.0,9.0,58,0.00,,,0.00,Rainwise IP-100,2013-02-13 18:43:00,
2013-02-13 13:48:00,33.0,21.0,29.84,NW,315,3.0,7.0,58,0.00,,,0.00,Rainwise IP-100,2013-02-13 18:48:00,
2013-02-13 13:53:00,33.0,21.0,29.84,NNW,337,10.0,10.0,58,0.00,,,0.00,Rainwise IP-100,2013-02-13 18:53:00,
2013-02-13 13:58:00,33.0,21.0,29.85,NW,315,6.0,10.0,60,0.00,,,0.00,Rainwise IP-100,2013-02-13 18:58:00,
2013-02-13 14:03:00,33.0,21.0,29.85,North,360,2.0,7.0,60,0.00,,,0.00,Rainwise IP-100,2013-02-13 19:03:00,
2013-02-13 14:08:00,33.0,21.0,29.84,North,360,4.0,9.0,58,0.00,,,0.00,Rainwise IP-100,2013-02-13 19:08:00,
2013-02-13 14:13:00,33.0,23.0,29.84,NNW,337,0.0,7.0,61,0.00,,,0.00,Rainwise IP-100,2013-02-13 19:13:00,
2013-02-13 14:18:00,33.0,21.0,29.84,NW,315,5.0,6.0,59,0.00,,,0.00,Rainwise IP-100,2013-02-13 19:18:00,
2013-02-13 14:23:00,32.0,18.0,29.84,West,270,2.0,8.0,58,0.00,,,0.00,Rainwise IP-100,2013-02-13 19:23:00,
2013-02-13 14:28:00,33.0,21.0,29.84,NNW,337,6.0,6.0,60,0.00,,,0.00,Rainwise IP-100,2013-02-13 19:28:00,
2013-02-13 14:33:00,32.0,21.0,29.84,NW,315,5.0,6.0,62,0.00,,,0.00,Rainwise IP-100,2013-02-13 19:33:00,
2013-02-13 14:38:00,33.0,23.0,29.84,NW,315,6.0,9.0,61,0.00,,,0.00,Rainwise IP-100,2013-02-13 19:38:00,
2013-02-13 14:43:00,32.0,21.0,29.84,WNW,292,6.0,8.0,60,0.00,,,0.00,Rainwise IP-100,2013-02-13 19:43:00,
2013-02-13 14:48:00,33.0,21.0,29.84,WSW,247,0.0,7.0,60,0.00,,,0.00,Rainwise IP-100,2013-02-13 19:48:00,
2013-02-13 14:53:00,33.0,21.0,29.84,West,270,2.0,6.0,58,0.00,,,0.00,Rainwise IP-100,2013-02-13 19:53:00,
2013-02-13 14:58:00,33.0,21.0,29.84,SW,225,5.0,6.0,60,0.00,,,0.00,Rainwise IP-100,2013-02-13 19:58:00,
2013-02-13 15:03:00,32.0,21.0,29.83,SSE,157,4.0,6.0,60,0.00,,,0.00,Rainwise IP-100,2013-02-13 20:03:00,
2013-02-13 15:08:00,33.0,21.0,29.83,WSW,247,2.0,6.0,60,0.00,,,0.00,Rainwise IP-100,2013-02-13 20:08:00,
2013-02-13 15:13:00,33.0,21.0,29.83,West,270,0.0,6.0,59,0.00,,,0.00,Rainwise IP-100,2013-02-13 20:13:00,
2013-02-13 15:18:00,33.0,21.0,29.83,West,270,0.0,2.0,58,0.00,,,0.00,Rainwise IP-100,2013-02-13 20:18:00,
2013-02-13 15:23:00,33.0,21.0,29.83,WSW,247,3.0,8.0,57,0.00,,,0.00,Rainwise IP-100,2013-02-13 20:23:00,
2013-02-13 15:28:00,33.0,23.0,29.83,WSW,247,0.0,6.0,61,0.00,,,0.00,Rainwise IP-100,2013-02-13 20:28:00,
2013-02-13 15:33:00,33.0,21.0,29.83,WNW,292,0.0,2.0,59,0.00,,,0.00,Rainwise IP-100,2013-02-13 20:33:00,
2013-02-13 15:38:00,33.0,21.0,29.82,WNW,292,0.0,2.0,58,0.00,,,0.00,Rainwise IP-100,2013-02-13 20:38:00,
2013-02-13 15:43:00,33.0,21.0,29.82,WNW,292,0.0,0.0,60,0.00,,,0.00,Rainwise IP-100,2013-02-13 20:43:00,
2013-02-13 15:48:00,33.0,23.0,29.82,WNW,292,0.0,0.0,62,0.00,,,0.00,Rainwise IP-100,2013-02-13 20:48:00,
2013-02-13 15:53:00,33.0,21.0,29.82,WNW,292,0.0,0.0,58,0.00,,,0.00,Rainwise IP-100,2013-02-13 20:53:00,
2013-02-13 15:58:00,33.0,21.0,29.82,NW,315,4.0,5.0,58,0.00,,,0.00,Rainwise IP-100,2013-02-13 20:58:00,
2013-02-13 16:03:00,32.0,21.0,29.82,SW,225,3.0,6.0,59,0.00,,,0.00,Rainwise IP-100,2013-02-13 21:03:00,
2013-02-13 16:08:00,32.0,21.0,29.83,WSW,247,1.0,5.0,60,0.00,,,0.00,Rainwise IP-100,2013-02-13 21:08:00,
2013-02-13 16:13:00,32.0,21.0,29.83,West,270,3.0,6.0,61,0.00,,,0.00,Rainwise IP-100,2013-02-13 21:13:00,
2013-02-13 16:18:00,32.0,21.0,29.83,SW,225,2.0,6.0,60,0.00,,,0.00,Rainwise IP-100,2013-02-13 21:18:00,
2013-02-13 16:23:00,32.0,21.0,29.83,WNW,292,6.0,7.0,61,0.00,,,0.00,Rainwise IP-100,2013-02-13 21:23:00,
2013-02-13 16:28:00,32.0,21.0,29.82,NNW,337,4.0,6.0,61,0.00,,,0.00,Rainwise IP-100,2013-02-13 21:28:00,
2013-02-13 16:33:00,32.0,21.0,29.82,NNW,337,1.0,4.0,63,0.00,,,0.00,Rainwise IP-100,2013-02-13 21:33:00,
2013-02-13 16:38:00,32.0,21.0,29.82,NW,315,0.0,4.0,63,0.00,,,0.00,Rainwise IP-100,2013-02-13 21:38:00,
2013-02-13 16:43:00,32.0,21.0,29.82,SW,225,0.0,4.0,62,0.00,,,0.00,Rainwise IP-100,2013-02-13 21:43:00,
2013-02-13 16:48:00,32.0,21.0,29.82,SW,225,0.0,0.0,63,0.00,,,0.00,Rainwise IP-100,2013-02-13 21:48:00,
2013-02-13 16:53:00,31.0,21.0,29.82,WSW,247,3.0,4.0,62,0.00,,,0.00,Rainwise IP-100,2013-02-13 21:53:00,
2013-02-13 16:58:00,32.0,21.0,29.82,WSW,247,5.0,6.0,62,0.00,,,0.00,Rainwise IP-100,2013-02-13 21:58:00,
2013-02-13 17:03:00,31.0,21.0,29.82,WSW,247,5.0,6.0,62,0.00,,,0.00,Rainwise IP-100,2013-02-13 22:03:00,
2013-02-13 17:08:00,32.0,21.0,29.82,WSW,247,6.0,7.0,63,0.00,,,0.00,Rainwise IP-100,2013-02-13 22:08:00,
2013-02-13 17:13:00,31.0,21.0,29.82,WSW,247,6.0,7.0,63,0.00,,,0.00,Rainwise IP-100,2013-02-13 22:13:00,
2013-02-13 17:18:00,31.0,21.0,29.83,WSW,247,6.0,7.0,63,0.00,,,0.00,Rainwise IP-100,2013-02-13 22:18:00,
2013-02-13 17:23:00,31.0,21.0,29.83,WSW,247,4.0,6.0,64,0.00,,,0.00,Rainwise IP-100,2013-02-13 22:23:00,
2013-02-13 17:28:00,31.0,21.0,29.83,WSW,247,3.0,6.0,65,0.00,,,0.00,Rainwise IP-100,2013-02-13 22:28:00,
2013-02-13 17:33:00,31.0,21.0,29.83,SW,225,3.0,5.0,65,0.00,,,0.00,Rainwise IP-100,2013-02-13 22:33:00,
2013-02-13 17:38:00,31.0,21.0,29.83,SW,225,4.0,6.0,65,0.00,,,0.00,Rainwise IP-100,2013-02-13 22:38:00,
2013-02-13 17:43:00,31.0,21.0,29.83,SW,225,4.0,5.0,65,0.00,,,0.00,Rainwise IP-100,2013-02-13 22:43:00,
2013-02-13 17:48:00,31.0,21.0,29.83,SW,225,2.0,5.0,65,0.00,,,0.00,Rainwise IP-100,2013-02-13 22:48:00,
2013-02-13 17:53:00,31.0,21.0,29.83,SW,225,1.0,4.0,66,0.00,,,0.00,Rainwise IP-100,2013-02-13 22:53:00,
2013-02-13 17:58:00,31.0,21.0,29.82,SSE,157,3.0,6.0,66,0.00,,,0.00,Rainwise IP-100,2013-02-13 22:58:00,
2013-02-13 18:03:00,31.0,21.0,29.82,SSE,157,3.0,6.0,66,0.00,,,0.00,Rainwise IP-100,2013-02-13 23:03:00,
2013-02-13 18:08:00,31.0,21.0,29.82,South,180,2.0,5.0,66,0.00,,,0.00,Rainwise IP-100,2013-02-13 23:08:00,
2013-02-13 18:13:00,30.0,21.0,29.82,South,180,2.0,4.0,67,0.00,,,0.00,Rainwise IP-100,2013-02-13 23:13:00,
2013-02-13 18:18:00,30.0,21.0,29.82,South,180,1.0,3.0,67,0.00,,,0.00,Rainwise IP-100,2013-02-13 23:18:00,
2013-02-13 18:23:00,30.0,23.0,29.82,South,180,2.0,2.0,68,0.00,,,0.00,Rainwise IP-100,2013-02-13 23:23:00,
2013-02-13 18:28:00,30.0,23.0,29.82,South,180,2.0,3.0,68,0.00,,,0.00,Rainwise IP-100,2013-02-13 23:28:00,
2013-02-13 18:33:00,30.0,23.0,29.82,South,180,1.0,2.0,68,0.00,,,0.00,Rainwise IP-100,2013-02-13 23:33:00,
2013-02-13 18:38:00,30.0,23.0,29.82,South,180,1.0,1.0,68,0.00,,,0.00,Rainwise IP-100,2013-02-13 23:38:00,
2013-02-13 18:43:00,29.0,21.0,29.82,South,180,1.0,2.0,68,0.00,,,0.00,Rainwise IP-100,2013-02-13 23:43:00,
2013-02-13 18:48:00,30.0,23.0,29.82,South,180,1.0,2.0,68,0.00,,,0.00,Rainwise IP-100,2013-02-13 23:48:00,
2013-02-13 18:53:00,30.0,23.0,29.82,South,180,0.0,2.0,68,0.00,,,0.00,Rainwise IP-100,2013-02-13 23:53:00,
2013-02-13 18:58:00,29.0,21.0,29.83,South,180,0.0,0.0,71,0.00,,,0.00,Rainwise IP-100,2013-02-13 23:58:00,
2013-02-13 19:03:00,29.0,23.0,29.83,South,180,1.0,2.0,72,0.00,,,0.00,Rainwise IP-100,2013-02-14 00:03:00,
2013-02-13 19:08:00,29.0,21.0,29.83,South,180,3.0,3.0,71,0.00,,,0.00,Rainwise IP-100,2013-02-14 00:08:00,
2013-02-13 19:13:00,29.0,21.0,29.84,South,180,0.0,3.0,71,0.00,,,0.00,Rainwise IP-100,2013-02-14 00:13:00,
2013-02-13 19:18:00,29.0,23.0,29.83,South,180,0.0,0.0,72,0.00,,,0.00,Rainwise IP-100,2013-02-14 00:18:00,
2013-02-13 19:23:00,28.0,21.0,29.83,South,180,0.0,1.0,73,0.00,,,0.00,Rainwise IP-100,2013-02-14 00:23:00,
2013-02-13 19:28:00,28.0,21.0,29.83,South,180,0.0,0.0,74,0.00,,,0.00,Rainwise IP-100,2013-02-14 00:28:00,
2013-02-13 19:33:00,28.0,21.0,29.83,South,180,1.0,2.0,74,0.00,,,0.00,Rainwise IP-100,2013-02-14 00:33:00,
2013-02-13 19:38:00,28.0,21.0,29.83,South,180,0.0,1.0,73,0.00,,,0.00,Rainwise IP-100,2013-02-14 00:38:00,
2013-02-13 19:43:00,28.0,21.0,29.83,South,180,0.0,1.0,72,0.00,,,0.00,Rainwise IP-100,2013-02-14 00:43:00,
2013-02-13 19:48:00,28.0,21.0,29.83,South,180,0.0,0.0,73,0.00,,,0.00,Rainwise IP-100,2013-02-14 00:48:00,
2013-02-13 19:53:00,28.0,21.0,29.83,South,180,3.0,3.0,74,0.00,,,0.00,Rainwise IP-100,2013-02-14 00:53:00,
2013-02-13 19:58:00,28.0,21.0,29.83,South,180,2.0,3.0,73,0.00,,,0.00,Rainwise IP-100,2013-02-14 00:58:00,
2013-02-13 20:03:00,28.0,21.0,29.83,South,180,2.0,3.0,74,0.00,,,0.00,Rainwise IP-100,2013-02-14 01:03:00,
2013-02-13 20:08:00,28.0,21.0,29.83,South,180,4.0,4.0,75,0.00,,,0.00,Rainwise IP-100,2013-02-14 01:08:00,
2013-02-13 20:13:00,28.0,21.0,29.83,South,180,4.0,5.0,76,0.00,,,0.00,Rainwise IP-100,2013-02-14 01:13:00,
2013-02-13 20:18:00,28.0,23.0,29.83,South,180,1.0,5.0,77,0.00,,,0.00,Rainwise IP-100,2013-02-14 01:18:00,
2013-02-13 20:23:00,27.0,23.0,29.83,SW,225,4.0,4.0,77,0.00,,,0.00,Rainwise IP-100,2013-02-14 01:23:00,
2013-02-13 20:28:00,28.0,21.0,29.83,SW,225,3.0,4.0,75,0.00,,,0.00,Rainwise IP-100,2013-02-14 01:28:00,
2013-02-13 20:33:00,28.0,21.0,29.83,SW,225,1.0,3.0,75,0.00,,,0.00,Rainwise IP-100,2013-02-14 01:33:00,
2013-02-13 20:38:00,28.0,21.0,29.83,SW,225,0.0,2.0,75,0.00,,,0.00,Rainwise IP-100,2013-02-14 01:38:00,
2013-02-13 20:43:00,28.0,21.0,29.83,SW,225,0.0,1.0,74,0.00,,,0.00,Rainwise IP-100,2013-02-14 01:43:00,
2013-02-13 20:48:00,28.0,21.0,29.83,SSE,157,2.0,3.0,76,0.00,,,0.00,Rainwise IP-100,2013-02-14 01:48:00,
2013-02-13 20:53:00,28.0,23.0,29.83,SSE,157,3.0,3.0,77,0.00,,,0.00,Rainwise IP-100,2013-02-14 01:53:00,
2013-02-13 20:58:00,28.0,21.0,29.84,SSE,157,2.0,4.0,76,0.00,,,0.00,Rainwise IP-100,2013-02-14 01:58:00,
2013-02-13 21:04:00,28.0,21.0,29.84,SSE,157,5.0,5.0,75,0.00,,,0.00,Rainwise IP-100,2013-02-14 02:04:00,
2013-02-13 21:09:00,28.0,23.0,29.84,SSE,157,5.0,5.0,77,0.00,,,0.00,Rainwise IP-100,2013-02-14 02:09:00,
2013-02-13 21:14:00,27.0,23.0,29.84,SSE,157,4.0,6.0,77,0.00,,,0.00,Rainwise IP-100,2013-02-14 02:14:00,
2013-02-13 21:19:00,28.0,23.0,29.84,SSE,157,5.0,5.0,78,0.00,,,0.00,Rainwise IP-100,2013-02-14 02:19:00,
2013-02-13 21:24:00,27.0,23.0,29.84,South,180,6.0,6.0,78,0.00,,,0.00,Rainwise IP-100,2013-02-14 02:24:00,
2013-02-13 21:29:00,28.0,23.0,29.84,SSW,202,5.0,6.0,77,0.00,,,0.00,Rainwise IP-100,2013-02-14 02:29:00,
2013-02-13 21:34:00,28.0,21.0,29.84,SSW,202,3.0,6.0,76,0.00,,,0.00,Rainwise IP-100,2013-02-14 02:34:00,
2013-02-13 21:39:00,28.0,21.0,29.84,SSW,202,4.0,5.0,75,0.00,,,0.00,Rainwise IP-100,2013-02-14 02:39:00,
2013-02-13 21:44:00,28.0,21.0,29.84,SSE,157,5.0,6.0,75,0.00,,,0.00,Rainwise IP-100,2013-02-14 02:44:00,
2013-02-13 21:49:00,28.0,21.0,29.84,SSE,157,3.0,5.0,76,0.00,,,0.00,Rainwise IP-100,2013-02-14 02:49:00,
2013-02-13 21:54:00,28.0,23.0,29.84,South,180,4.0,5.0,77,0.00,,,0.00,Rainwise IP-100,2013-02-14 02:54:00,
2013-02-13 21:59:00,28.0,23.0,29.84,South,180,5.0,6.0,77,0.00,,,0.00,Rainwise IP-100,2013-02-14 02:59:00,
2013-02-13 22:04:00,28.0,21.0,29.84,South,180,4.0,6.0,76,0.00,,,0.00,Rainwise IP-100,2013-02-14 03:04:00,
2013-02-13 22:09:00,28.0,23.0,29.84,South,180,0.0,5.0,78,0.00,,,0.00,Rainwise IP-100,2013-02-14 03:09:00,
2013-02-13 22:14:00,27.0,23.0,29.84,South,180,0.0,0.0,78,0.00,,,0.00,Rainwise IP-100,2013-02-14 03:14:00,
2013-02-13 22:19:00,27.0,23.0,29.84,South,180,1.0,1.0,78,0.00,,,0.00,Rainwise IP-100,2013-02-14 03:19:00,
2013-02-13 22:24:00,27.0,23.0,29.84,South,180,1.0,2.0,80,0.00,,,0.00,Rainwise IP-100,2013-02-14 03:24:00,
2013-02-13 22:29:00,27.0,23.0,29.84,South,180,0.0,2.0,81,0.00,,,0.00,Rainwise IP-100,2013-02-14 03:29:00,
2013-02-13 22:34:00,27.0,23.0,29.84,South,180,0.0,0.0,80,0.00,,,0.00,Rainwise IP-100,2013-02-14 03:34:00,
2013-02-13 22:39:00,27.0,23.0,29.84,South,180,1.0,1.0,80,0.00,,,0.00,Rainwise IP-100,2013-02-14 03:39:00,
2013-02-13 22:44:00,27.0,23.0,29.84,South,180,0.0,2.0,80,0.00,,,0.00,Rainwise IP-100,2013-02-14 03:44:00,
2013-02-13 22:49:00,27.0,23.0,29.84,South,180,0.0,0.0,81,0.00,,,0.00,Rainwise IP-100,2013-02-14 03:49:00,
2013-02-13 22:54:00,27.0,23.0,29.84,South,180,0.0,0.0,80,0.00,,,0.00,Rainwise IP-100,2013-02-14 03:54:00,
2013-02-13 22:59:00,27.0,23.0,29.84,SW,225,2.0,3.0,80,0.00,,,0.00,Rainwise IP-100,2013-02-14 03:59:00,
2013-02-13 23:04:00,27.0,23.0,29.84,SW,225,1.0,2.0,78,0.00,,,0.00,Rainwise IP-100,2013-02-14 04:04:00,
2013-02-13 23:09:00,27.0,23.0,29.84,SW,225,0.0,1.0,79,0.00,,,0.00,Rainwise IP-100,2013-02-14 04:09:00,
2013-02-13 23:14:00,27.0,23.0,29.84,SW,225,0.0,1.0,79,0.00,,,0.00,Rainwise IP-100,2013-02-14 04:14:00,
2013-02-13 23:19:00,27.0,23.0,29.84,SW,225,0.0,1.0,79,0.00,,,0.00,Rainwise IP-100,2013-02-14 04:19:00,
2013-02-13 23:24:00,27.0,23.0,29.84,SW,225,0.0,0.0,79,0.00,,,0.00,Rainwise IP-100,2013-02-14 04:24:00,
2013-02-13 23:29:00,27.0,23.0,29.84,SW,225,0.0,0.0,79,0.00,,,0.00,Rainwise IP-100,2013-02-14 04:29:00,
2013-02-13 23:34:00,27.0,23.0,29.84,SW,225,0.0,0.0,81,0.00,,,0.00,Rainwise IP-100,2013-02-14 04:34:00,
2013-02-13 23:39:00,27.0,23.0,29.84,SW,225,0.0,0.0,81,0.00,,,0.00,Rainwise IP-100,2013-02-14 04:39:00,
2013-02-13 23:44:00,27.0,23.0,29.84,SW,225,0.0,0.0,80,0.00,,,0.00,Rainwise IP-100,2013-02-14 04:44:00,
2013-02-13 23:49:00,27.0,23.0,29.84,SW,225,0.0,0.0,81,0.00,,,0.00,Rainwise IP-100,2013-02-14 04:49:00,
2013-02-13 23:54:00,27.0,23.0,29.84,SW,225,0.0,0.0,81,0.00,,,0.00,Rainwise IP-100,2013-02-14 04:54:00,
2013-02-13 23:59:00,27.0,23.0,29.84,SW,225,0.0,0.0,80,0.00,,,0.00,Rainwise IP-100,2013-02-14 04:59:00,